Orange, VA

4:58 PM EDT on March 25, 2017 (GMT -0400)
Orange County

Weather History for KOMH - January, 2012

Change the Weather History Date:

Wednesday, January 11, 2012

  Actual Average Record
Temperature  
Mean Temperature 34 °F -  
Max Temperature 42 °F 41 °F 68 °F (1950)
Min Temperature 26 °F 22 °F -5 °F (1962)
Degree Days  
Heating Degree Days 31    
Moisture  
Dew Point 34 °F    
Average Humidity 100    
Maximum Humidity 100    
Minimum Humidity 93    
Precipitation  
Precipitation 0.90 in - - ()
Sea Level Pressure  
Sea Level Pressure 29.91 in    
Wind  
Wind Speed 2 mph (NNW)    
Max Wind Speed 9 mph    
Max Gust Speed 18 mph    
Visibility 7 miles    
Events Rain    
Averages and records for this station are not official NWS values.
T = Trace of Precipitation, MM = Missing Value Source: NWS Daily Summary

Daily Weather History Graph

Daily Weather History Graph

Search for Another Location

Airport or City:

Trip Planner

Search our weather history database for the weather conditions in past years. The results will help you decide how hot, cold, wet, or windy it might be!

Date:

Astronomy

Jan. 11, 2012 Rise Set
Actual Time 7:28 AM EST 5:11 PM EST
Civil Twilight 6:59 AM EST 5:40 PM EST
Nautical Twilight 6:26 AM EST 6:13 PM EST
Astronomical Twilight 5:55 AM EST 6:45 PM EST
Moon 8:04 PM EST (1/11) 8:42 AM EST (1/11)
Length of Visible Light 10h 40m
Length of Day
9h 42m
Waning Gibbous, 93% of the Moon is Illuminated
Jan 11
Waning Gibbous
Jan 16
Last Quarter
Jan 23
New
Jan 30
First Quarter
Feb 7
Full

Hourly Weather History & Observations

Time (EST) Temp. Windchill Dew Point Humidity Pressure Visibility Wind Dir Wind Speed Gust Speed Precip Events Conditions
12:15 AM 28.4 °F - 28.4 °F 100% 30.05 in 10.0 mi Calm Calm - N/A   Clear
12:35 AM 30.2 °F - 30.2 °F 100% 30.04 in 10.0 mi Calm Calm - N/A   Clear
12:55 AM 28.4 °F - 28.4 °F 100% 30.05 in 10.0 mi Calm Calm - N/A   Clear
1:15 AM 28.4 °F - 28.4 °F 100% 30.05 in 10.0 mi Calm Calm - N/A   Clear
1:35 AM 28.4 °F - 28.4 °F 100% 30.05 in 10.0 mi Calm Calm - N/A   Clear
1:55 AM 28.4 °F - 28.4 °F 100% 30.04 in 10.0 mi Calm Calm - N/A   Clear
2:15 AM 28.4 °F 24.6 °F 28.4 °F 100% 30.05 in 10.0 mi SSW 3.5 mph - N/A   Clear
2:35 AM 28.4 °F - 28.4 °F 100% 30.05 in 10.0 mi Calm Calm - N/A   Clear
2:55 AM 28.4 °F - 28.4 °F 100% 30.03 in 10.0 mi Calm Calm - N/A   Clear
3:15 AM 28.4 °F - 28.4 °F 100% 30.03 in 10.0 mi Calm Calm - N/A   Clear
3:35 AM 28.4 °F - 28.4 °F 100% 30.03 in 10.0 mi Calm Calm - N/A   Clear
3:55 AM 26.6 °F 22.6 °F 26.6 °F 100% 30.03 in 10.0 mi SSW 3.5 mph - N/A   Clear
4:15 AM 28.4 °F - 28.4 °F 100% 30.03 in 10.0 mi Calm Calm - N/A   Clear
4:35 AM 28.4 °F - 28.4 °F 100% 30.02 in 10.0 mi Calm Calm - N/A   Clear
4:55 AM 28.4 °F - 28.4 °F 100% 30.01 in 10.0 mi Calm Calm - N/A   Clear
5:15 AM 28.4 °F - 28.4 °F 100% 30.01 in 10.0 mi Calm Calm - N/A   Clear
5:35 AM 28.4 °F - 28.4 °F 100% 30.01 in 10.0 mi Calm Calm - N/A   Clear
5:55 AM 28.4 °F - 28.4 °F 100% 30.01 in 10.0 mi Calm Calm - N/A   Clear
6:15 AM 28.4 °F - 28.4 °F 100% 30.01 in 10.0 mi Calm Calm - N/A   Clear
6:35 AM 30.2 °F - 30.2 °F 100% 30.02 in 10.0 mi Calm Calm - N/A   Clear
6:55 AM 30.2 °F - 30.2 °F 100% 30.01 in 10.0 mi Calm Calm - N/A   Clear
7:15 AM 30.2 °F - 30.2 °F 100% 30.01 in 10.0 mi Calm Calm - N/A   Mostly Cloudy
7:35 AM 30.2 °F - 30.2 °F 100% 30.02 in 10.0 mi Calm Calm - N/A   Overcast
7:55 AM 32.0 °F - 32.0 °F 100% 30.01 in 10.0 mi Calm Calm - N/A   Overcast
8:15 AM 32.0 °F - 32.0 °F 100% 30.01 in 10.0 mi Calm Calm - N/A   Overcast
8:35 AM 32.0 °F - 32.0 °F 100% 30.01 in 10.0 mi Calm Calm - N/A   Overcast
8:55 AM 32.0 °F - 32.0 °F 100% 30.02 in 10.0 mi Calm Calm - N/A   Overcast
9:15 AM 32.0 °F - 32.0 °F 100% 30.03 in 10.0 mi Calm Calm - N/A   Light Drizzle
9:55 AM 33.8 °F - 33.8 °F 100% 30.03 in 10.0 mi Calm Calm - N/A   Overcast
10:15 AM 35.6 °F - 33.8 °F 93% 30.02 in 10.0 mi Calm Calm - N/A   Overcast
10:35 AM 35.6 °F - 33.8 °F 93% 30.02 in 7.0 mi Calm Calm - N/A Rain Rain
10:55 AM 35.6 °F - 33.8 °F 93% 30.02 in 7.0 mi Calm Calm - 0.01 in Rain Rain
11:15 AM 35.6 °F - 35.6 °F 100% 30.01 in 2.0 mi Calm Calm - 0.03 in Rain Rain
11:35 AM 35.6 °F 32.8 °F 35.6 °F 100% 29.99 in 7.0 mi North 3.5 mph - 0.06 in Rain Light Rain
11:55 AM 35.6 °F - 35.6 °F 100% 29.98 in 7.0 mi Calm Calm - 0.07 in   Overcast
12:15 PM 35.6 °F 31.7 °F 35.6 °F 100% 29.96 in 10.0 mi NNE 4.6 mph - N/A   Overcast
12:35 PM 35.6 °F 32.8 °F 35.6 °F 100% 29.95 in 7.0 mi North 3.5 mph - N/A   Overcast
12:55 PM 35.6 °F 31.7 °F 35.6 °F 100% 29.93 in 7.0 mi North 4.6 mph - N/A   Overcast
1:35 PM 37.4 °F 33.8 °F 37.4 °F 100% 29.91 in 10.0 mi NNE 4.6 mph - N/A   Overcast
1:55 PM 37.4 °F 34.9 °F 37.4 °F 100% 29.90 in 10.0 mi North 3.5 mph - N/A   Overcast
2:15 PM 35.6 °F 30.7 °F 35.6 °F 100% 29.89 in 7.0 mi North 5.8 mph - N/A Rain Light Rain
2:35 PM 35.6 °F 31.7 °F 35.6 °F 100% 29.88 in 5.0 mi North 4.6 mph - N/A   Overcast
2:55 PM 37.4 °F 34.9 °F 37.4 °F 100% 29.88 in 5.0 mi North 3.5 mph - N/A Rain Light Rain
3:15 PM 35.6 °F 31.7 °F 35.6 °F 100% 29.87 in 5.0 mi NNW 4.6 mph - N/A   Light Drizzle
3:35 PM 37.4 °F 33.8 °F 37.4 °F 100% 29.87 in 5.0 mi NW 4.6 mph - N/A   Overcast
3:55 PM 37.4 °F 32.8 °F 37.4 °F 100% 29.86 in 4.0 mi NNW 5.8 mph - N/A Rain Rain
4:15 PM 37.4 °F 32.8 °F 37.4 °F 100% 29.85 in 3.0 mi NNW 5.8 mph - 0.02 in Rain Rain
4:35 PM 37.4 °F 32.1 °F 37.4 °F 100% 29.84 in 3.0 mi NW 6.9 mph - 0.05 in Rain Rain
4:55 PM 37.4 °F 30.8 °F 37.4 °F 100% 29.82 in 4.0 mi NW 9.2 mph - 0.08 in Rain Rain
5:15 PM 37.4 °F 32.1 °F 37.4 °F 100% 29.81 in 2.5 mi North 6.9 mph - 0.04 in Rain Heavy Rain
5:35 PM 37.4 °F 32.1 °F 37.4 °F 100% 29.78 in 3.0 mi NNW 6.9 mph - 0.09 in Rain Rain
5:55 PM 37.4 °F 33.8 °F 37.4 °F 100% 29.77 in 5.0 mi NNW 4.6 mph - 0.10 in Rain Light Rain
6:15 PM 39.2 °F 35.0 °F 39.2 °F 100% 29.76 in 5.0 mi North 5.8 mph - 0.02 in Rain Rain
6:35 PM 39.2 °F 34.2 °F 39.2 °F 100% 29.75 in 4.0 mi NNW 6.9 mph - 0.03 in Rain Rain
7:15 PM 39.2 °F 33.6 °F 39.2 °F 100% 29.71 in 3.0 mi NNW 8.1 mph - 0.02 in Rain Rain
7:35 PM 41.0 °F 38.0 °F 41.0 °F 100% 29.70 in 5.0 mi North 4.6 mph - 0.03 in   Drizzle
7:55 PM 41.0 °F 35.8 °F 41.0 °F 100% 29.68 in 5.0 mi NNW 8.1 mph - 0.04 in Rain Rain
8:15 PM 41.0 °F 35.2 °F 41.0 °F 100% 29.66 in 5.0 mi NNW 9.2 mph - 0.02 in Rain Rain
8:35 PM 41.0 °F 35.2 °F 41.0 °F 100% 29.64 in 5.0 mi NNW 9.2 mph - 0.03 in Rain Rain
8:55 PM 41.0 °F 36.4 °F 41.0 °F 100% 29.61 in 5.0 mi North 6.9 mph - 0.07 in Rain Light Rain
9:15 PM 42.8 °F 39.3 °F 42.8 °F 100% 29.59 in 5.0 mi NNW 5.8 mph - 0.01 in Rain Rain
9:35 PM 42.8 °F 38.0 °F 42.8 °F 100% 29.60 in 2.0 mi WNW 8.1 mph - 0.10 in Rain Heavy Rain
9:55 PM 42.8 °F 38.6 °F 42.8 °F 100% 29.58 in 3.0 mi North 6.9 mph - 0.23 in Rain Heavy Rain
10:15 PM 42.8 °F 37.5 °F 42.8 °F 100% 29.61 in 1.0 mi SW 9.2 mph 18.4 mph 0.27 in   Unknown
10:35 PM 42.8 °F 37.0 °F 42.8 °F 100% 29.59 in 5.0 mi WNW 10.4 mph - 0.30 in Rain Rain
10:55 PM 42.8 °F 38.0 °F 42.8 °F 100% 29.57 in 10.0 mi NW 8.1 mph - 0.32 in Rain Light Rain
11:15 PM 42.8 °F 38.0 °F 42.8 °F 100% 29.55 in 7.0 mi NNW 8.1 mph - 0.01 in Rain Rain
11:35 PM 44.6 °F 41.4 °F 44.6 °F 100% 29.54 in 10.0 mi North 5.8 mph - 0.02 in   Overcast
11:55 PM 44.6 °F 39.7 °F 44.6 °F 100% 29.53 in 10.0 mi NW 9.2 mph - 0.02 in   Overcast